Location: ???????
(55.9142°N, 37.8256°E)
Time: 04:05:39
(UTC+00:00)

ADEOS II - Pass Details

Date: 14 April 2024
Orbit: 796 x 799 km, 98.7° (Epoch: 23 May)

Event Time Altitude Azimuth Distance (km) Brightness Sun altitude
Rises 00:41:59 0° 14° (NNE) 3,321 6.3 -13.4°
Reaches altitude 10° 00:44:21 10° 11° (N) 2,386 5.3 -13.1°
Maximum altitude 00:49:29 56° 294° (WNW) 947 2.3 -12.6°
Enters shadow 00:53:33 16° 221° (SW) 1,972 3.5 -12.1°
